Year,Month,Day,Hour,Minute,Value (Times are PST for temperature in C)
2019,03,27,00,00,4.70
2019,03,27,00,01,4.70
2019,03,27,00,02,4.70
2019,03,27,00,03,4.70
2019,03,27,00,04,4.60
2019,03,27,00,05,4.60
2019,03,27,00,06,4.60
2019,03,27,00,07,4.60
2019,03,27,00,08,4.50
2019,03,27,00,09,4.50
2019,03,27,00,10,4.40
2019,03,27,00,11,4.40
2019,03,27,00,12,4.40
2019,03,27,00,13,4.40
2019,03,27,00,14,4.40
2019,03,27,00,15,4.40
2019,03,27,00,16,4.40
2019,03,27,00,17,4.30
2019,03,27,00,18,4.30
2019,03,27,00,19,4.30
2019,03,27,00,20,4.30
2019,03,27,00,21,4.30
2019,03,27,00,22,4.30
2019,03,27,00,23,4.30
2019,03,27,00,24,4.20
2019,03,27,00,25,4.20
2019,03,27,00,26,4.20
2019,03,27,00,27,4.20
2019,03,27,00,28,4.10
2019,03,27,00,29,4.10
2019,03,27,00,30,4.10
2019,03,27,00,31,4.10
2019,03,27,00,32,4.10
2019,03,27,00,33,4.00
2019,03,27,00,34,4.00
2019,03,27,00,35,4.00
2019,03,27,00,36,4.00
2019,03,27,00,37,4.00
2019,03,27,00,38,3.90
2019,03,27,00,39,3.90
2019,03,27,00,40,3.90
2019,03,27,00,41,3.90
2019,03,27,00,42,3.90
2019,03,27,00,43,3.90
2019,03,27,00,44,3.90
2019,03,27,00,45,3.90
2019,03,27,00,46,3.90
2019,03,27,00,47,3.90
2019,03,27,00,48,3.80
2019,03,27,00,49,3.80
2019,03,27,00,50,3.80
2019,03,27,00,51,3.80
2019,03,27,00,52,3.80
2019,03,27,00,53,3.80
2019,03,27,00,54,3.70
2019,03,27,00,55,3.70
2019,03,27,00,56,3.70
2019,03,27,00,57,3.70
2019,03,27,00,58,3.70
2019,03,27,00,59,3.70
2019,03,27,01,00,3.60
2019,03,27,01,01,3.60
2019,03,27,01,02,3.60
2019,03,27,01,03,3.60
2019,03,27,01,04,3.60
2019,03,27,01,05,3.60
2019,03,27,01,06,3.60
2019,03,27,01,07,3.60
2019,03,27,01,08,3.60
2019,03,27,01,09,3.60
2019,03,27,01,10,3.60
2019,03,27,01,11,3.50
2019,03,27,01,12,3.50
2019,03,27,01,13,3.50
2019,03,27,01,14,3.60
2019,03,27,01,15,3.60
2019,03,27,01,16,3.60
2019,03,27,01,17,3.60
2019,03,27,01,18,3.60
2019,03,27,01,19,3.60
2019,03,27,01,20,3.60
2019,03,27,01,21,3.60
2019,03,27,01,22,3.60
2019,03,27,01,23,3.50
2019,03,27,01,24,3.50
2019,03,27,01,25,3.50
2019,03,27,01,26,3.50
2019,03,27,01,27,3.40
2019,03,27,01,28,3.40
2019,03,27,01,29,3.40
2019,03,27,01,30,3.30
2019,03,27,01,31,3.30
2019,03,27,01,32,3.30
2019,03,27,01,33,3.30
2019,03,27,01,34,3.30
2019,03,27,01,35,3.20
2019,03,27,01,36,3.20
2019,03,27,01,37,3.20
2019,03,27,01,38,3.20
2019,03,27,01,39,3.20
2019,03,27,01,40,3.20
2019,03,27,01,41,3.10
2019,03,27,01,42,3.10
2019,03,27,01,43,3.10
2019,03,27,01,44,3.10
2019,03,27,01,45,3.00
2019,03,27,01,46,3.00
2019,03,27,01,47,3.00
2019,03,27,01,48,3.00
2019,03,27,01,49,2.90
2019,03,27,01,50,2.90
2019,03,27,01,51,2.90
2019,03,27,01,52,2.90
2019,03,27,01,53,2.90
2019,03,27,01,54,2.90
2019,03,27,01,55,2.80
2019,03,27,01,56,2.80
2019,03,27,01,57,2.80
2019,03,27,01,58,2.80
2019,03,27,01,59,2.70
2019,03,27,02,00,2.70
2019,03,27,02,01,2.70
2019,03,27,02,02,2.70
2019,03,27,02,03,2.70
2019,03,27,02,04,2.70
2019,03,27,02,05,2.70
2019,03,27,02,06,2.70
2019,03,27,02,07,2.70
2019,03,27,02,08,2.60
2019,03,27,02,09,2.60
2019,03,27,02,10,2.60
2019,03,27,02,11,2.50
2019,03,27,02,12,2.50
2019,03,27,02,13,2.50
2019,03,27,02,14,2.50
2019,03,27,02,15,2.50
2019,03,27,02,16,2.50
2019,03,27,02,17,2.50
2019,03,27,02,18,2.50
2019,03,27,02,19,2.50
2019,03,27,02,20,2.50
2019,03,27,02,21,2.50
2019,03,27,02,22,2.40
2019,03,27,02,23,2.40
2019,03,27,02,24,2.40
2019,03,27,02,25,2.40
2019,03,27,02,26,2.40
2019,03,27,02,27,2.40
2019,03,27,02,28,2.30
2019,03,27,02,29,2.30
2019,03,27,02,30,2.30
2019,03,27,02,31,2.30
2019,03,27,02,32,2.30
2019,03,27,02,33,2.30
2019,03,27,02,34,2.30
2019,03,27,02,35,2.20
2019,03,27,02,36,2.20
2019,03,27,02,37,2.20
2019,03,27,02,38,2.20
2019,03,27,02,39,2.20
2019,03,27,02,40,2.20
2019,03,27,02,41,2.20
2019,03,27,02,42,2.20
2019,03,27,02,43,2.20
2019,03,27,02,44,2.20
2019,03,27,02,45,2.20
2019,03,27,02,46,2.30
2019,03,27,02,47,2.30
2019,03,27,02,48,2.30
2019,03,27,02,49,2.30
2019,03,27,02,50,2.30
2019,03,27,02,51,2.30
2019,03,27,02,52,2.40
2019,03,27,02,53,2.40
2019,03,27,02,54,2.40
2019,03,27,02,55,2.50
2019,03,27,02,56,2.50
2019,03,27,02,57,2.50
2019,03,27,02,58,2.50
2019,03,27,02,59,2.60
2019,03,27,03,00,2.60
2019,03,27,03,01,2.60
2019,03,27,03,02,2.60
2019,03,27,03,03,2.60
2019,03,27,03,04,2.50
2019,03,27,03,05,2.60
2019,03,27,03,06,2.60
2019,03,27,03,07,2.60
2019,03,27,03,08,2.60
2019,03,27,03,09,2.60
2019,03,27,03,10,2.60
2019,03,27,03,11,2.60
2019,03,27,03,12,2.60
2019,03,27,03,13,2.60
2019,03,27,03,14,2.60
2019,03,27,03,15,2.70
2019,03,27,03,16,2.70
2019,03,27,03,17,2.70
2019,03,27,03,18,2.70
2019,03,27,03,19,2.70
2019,03,27,03,20,2.70
2019,03,27,03,21,2.70
2019,03,27,03,22,2.70
2019,03,27,03,23,2.70
2019,03,27,03,24,2.70
2019,03,27,03,25,2.70
2019,03,27,03,26,2.70
2019,03,27,03,27,2.70
2019,03,27,03,28,2.80
2019,03,27,03,29,2.80
2019,03,27,03,30,2.80
2019,03,27,03,31,2.80
2019,03,27,03,32,2.80
2019,03,27,03,33,2.80
2019,03,27,03,34,2.80
2019,03,27,03,35,2.80
2019,03,27,03,36,2.80
2019,03,27,03,37,2.80
2019,03,27,03,38,2.80
2019,03,27,03,39,2.80
2019,03,27,03,40,2.80
2019,03,27,03,41,2.80
2019,03,27,03,42,2.70
2019,03,27,03,43,2.70
2019,03,27,03,44,2.70
2019,03,27,03,45,2.70
2019,03,27,03,46,2.70
2019,03,27,03,47,2.70
2019,03,27,03,48,2.70
2019,03,27,03,49,2.70
2019,03,27,03,50,2.70
2019,03,27,03,51,2.70
2019,03,27,03,52,2.70
2019,03,27,03,53,2.70
2019,03,27,03,54,2.70
2019,03,27,03,55,2.70
2019,03,27,03,56,2.70
2019,03,27,03,57,2.70
2019,03,27,03,58,2.70
2019,03,27,03,59,2.70
2019,03,27,04,00,2.70
2019,03,27,04,01,2.70
2019,03,27,04,02,2.70
2019,03,27,04,03,2.70
2019,03,27,04,04,2.70
2019,03,27,04,05,2.70
2019,03,27,04,06,2.70
2019,03,27,04,07,2.70
2019,03,27,04,08,2.60
2019,03,27,04,09,2.60
2019,03,27,04,10,2.60
2019,03,27,04,11,2.60
2019,03,27,04,12,2.60
2019,03,27,04,13,2.60
2019,03,27,04,14,2.60
2019,03,27,04,15,2.60
2019,03,27,04,16,2.60
2019,03,27,04,17,2.50
2019,03,27,04,18,2.50
2019,03,27,04,19,2.50
2019,03,27,04,20,2.50
2019,03,27,04,21,2.50
2019,03,27,04,22,2.40
2019,03,27,04,23,2.40
2019,03,27,04,24,2.40
2019,03,27,04,25,2.40
2019,03,27,04,26,2.40
2019,03,27,04,27,2.30
2019,03,27,04,28,2.30
2019,03,27,04,29,2.30
2019,03,27,04,30,2.30
2019,03,27,04,31,2.20
2019,03,27,04,32,2.20
2019,03,27,04,33,2.20
2019,03,27,04,34,2.20
2019,03,27,04,35,2.10
2019,03,27,04,36,2.10
2019,03,27,04,37,2.10
2019,03,27,04,38,2.10
2019,03,27,04,39,2.10
2019,03,27,04,40,2.10
2019,03,27,04,41,2.00
2019,03,27,04,42,2.00
2019,03,27,04,43,2.00
2019,03,27,04,44,2.00
2019,03,27,04,45,2.00
2019,03,27,04,46,2.00
2019,03,27,04,47,2.00
2019,03,27,04,48,1.90
2019,03,27,04,49,1.90
2019,03,27,04,50,1.90
2019,03,27,04,51,1.90
2019,03,27,04,52,1.90
2019,03,27,04,53,1.90
2019,03,27,04,54,1.90
2019,03,27,04,55,1.90
2019,03,27,04,56,1.90
2019,03,27,04,57,1.90
2019,03,27,04,58,1.90
2019,03,27,04,59,1.90
2019,03,27,05,00,2.00
2019,03,27,05,01,2.00
2019,03,27,05,02,2.00
2019,03,27,05,03,2.10
2019,03,27,05,04,2.10
2019,03,27,05,05,2.10
2019,03,27,05,06,2.10
2019,03,27,05,07,2.10
2019,03,27,05,08,2.20
2019,03,27,05,09,2.20
2019,03,27,05,10,2.20
2019,03,27,05,11,2.20
2019,03,27,05,12,2.30
2019,03,27,05,13,2.30
2019,03,27,05,14,2.30
2019,03,27,05,15,2.40
2019,03,27,05,16,2.40
2019,03,27,05,17,2.50
2019,03,27,05,18,2.50
2019,03,27,05,19,2.60
2019,03,27,05,20,2.60
2019,03,27,05,21,2.70
2019,03,27,05,22,2.70
2019,03,27,05,23,2.70
2019,03,27,05,24,2.70
2019,03,27,05,25,2.70
2019,03,27,05,26,2.80
2019,03,27,05,27,2.80
2019,03,27,05,28,2.80
2019,03,27,05,29,2.80
2019,03,27,05,30,3.00
2019,03,27,05,31,3.10
2019,03,27,05,32,3.20
2019,03,27,05,33,3.30
2019,03,27,05,34,3.30
2019,03,27,05,35,3.40
2019,03,27,05,36,3.40
2019,03,27,05,37,3.40
2019,03,27,05,38,3.40
2019,03,27,05,39,3.40
2019,03,27,05,40,3.30
2019,03,27,05,41,3.20
2019,03,27,05,42,3.00
2019,03,27,05,43,2.90
2019,03,27,05,44,2.70
2019,03,27,05,45,2.60
2019,03,27,05,46,2.50
2019,03,27,05,47,2.40
2019,03,27,05,48,2.30
2019,03,27,05,49,2.30
2019,03,27,05,50,2.20
2019,03,27,05,51,2.20
2019,03,27,05,52,2.20
2019,03,27,05,53,2.10
2019,03,27,05,54,2.00
2019,03,27,05,55,2.00
2019,03,27,05,56,1.90
2019,03,27,05,57,1.90
2019,03,27,05,58,1.90
2019,03,27,05,59,1.80
2019,03,27,06,00,1.80
2019,03,27,06,01,1.80
2019,03,27,06,02,1.80
2019,03,27,06,03,1.80
2019,03,27,06,04,1.80
2019,03,27,06,05,1.80
2019,03,27,06,06,1.90
2019,03,27,06,07,1.90
2019,03,27,06,08,1.90
2019,03,27,06,09,1.80
2019,03,27,06,10,1.80
2019,03,27,06,11,1.80
2019,03,27,06,12,1.70
2019,03,27,06,13,1.70
2019,03,27,06,14,1.60
2019,03,27,06,15,1.60
2019,03,27,06,16,1.50
2019,03,27,06,17,1.50
2019,03,27,06,18,1.40
2019,03,27,06,19,1.40
2019,03,27,06,20,1.30
2019,03,27,06,21,1.30
2019,03,27,06,22,1.30
2019,03,27,06,23,1.30
2019,03,27,06,24,1.30
2019,03,27,06,25,1.30
2019,03,27,06,26,1.30
2019,03,27,06,27,1.30
2019,03,27,06,28,1.30
2019,03,27,06,29,1.30
2019,03,27,06,30,1.30
2019,03,27,06,31,1.30
2019,03,27,06,32,1.30
2019,03,27,06,33,1.30
2019,03,27,06,34,1.40
2019,03,27,06,35,1.40
2019,03,27,06,36,1.40
2019,03,27,06,37,1.40
2019,03,27,06,38,1.40
2019,03,27,06,39,1.40
2019,03,27,06,40,1.40
2019,03,27,06,41,1.30
2019,03,27,06,42,1.30
2019,03,27,06,43,1.30
2019,03,27,06,44,1.30
2019,03,27,06,45,1.30
2019,03,27,06,46,1.30
2019,03,27,06,47,1.20
2019,03,27,06,48,1.20
2019,03,27,06,49,1.20
2019,03,27,06,50,1.10
2019,03,27,06,51,1.10
2019,03,27,06,52,1.10
2019,03,27,06,53,1.10
2019,03,27,06,54,1.10
2019,03,27,06,55,1.10
2019,03,27,06,56,1.10
2019,03,27,06,57,1.10
2019,03,27,06,58,1.10
2019,03,27,06,59,1.10
2019,03,27,07,00,1.10
2019,03,27,07,01,1.20
2019,03,27,07,02,1.20
2019,03,27,07,03,1.20
2019,03,27,07,04,1.30
2019,03,27,07,05,1.30
2019,03,27,07,06,1.40
2019,03,27,07,07,1.40
2019,03,27,07,08,1.40
2019,03,27,07,09,1.40
2019,03,27,07,10,1.40
2019,03,27,07,11,1.40
2019,03,27,07,12,1.40
2019,03,27,07,13,1.40
2019,03,27,07,14,1.40
2019,03,27,07,15,1.40
2019,03,27,07,16,1.50
2019,03,27,07,17,1.40
2019,03,27,07,18,1.40
2019,03,27,07,19,1.40
2019,03,27,07,20,1.40
2019,03,27,07,21,1.40
2019,03,27,07,22,1.30
2019,03,27,07,23,1.30
2019,03,27,07,24,1.30
2019,03,27,07,25,1.30
2019,03,27,07,26,1.40
2019,03,27,07,27,1.40
2019,03,27,07,28,1.50
2019,03,27,07,29,1.50
2019,03,27,07,30,1.50
2019,03,27,07,31,1.50
2019,03,27,07,32,1.50
2019,03,27,07,33,1.50
2019,03,27,07,34,1.50
2019,03,27,07,35,1.50
2019,03,27,07,36,1.50
2019,03,27,07,37,1.50
2019,03,27,07,38,1.40
2019,03,27,07,39,1.40
2019,03,27,07,40,1.40
2019,03,27,07,41,1.40
2019,03,27,07,42,1.40
2019,03,27,07,43,1.40
2019,03,27,07,44,1.40
2019,03,27,07,45,1.50
2019,03,27,07,46,1.50
2019,03,27,07,47,1.60
2019,03,27,07,48,1.60
2019,03,27,07,49,1.60
2019,03,27,07,50,1.60
2019,03,27,07,51,1.60
2019,03,27,07,52,1.70
2019,03,27,07,53,1.70
2019,03,27,07,54,1.70
2019,03,27,07,55,1.70
2019,03,27,07,56,1.70
2019,03,27,07,57,1.70
2019,03,27,07,58,1.70
2019,03,27,07,59,1.80
2019,03,27,08,00,1.80
2019,03,27,08,01,1.80
2019,03,27,08,02,1.90
2019,03,27,08,03,1.90
2019,03,27,08,04,2.00
2019,03,27,08,05,2.10
2019,03,27,08,06,2.10
2019,03,27,08,07,2.20
2019,03,27,08,08,2.30
2019,03,27,08,09,2.30
2019,03,27,08,10,2.40
2019,03,27,08,11,2.50
2019,03,27,08,12,2.60
2019,03,27,08,13,2.70
2019,03,27,08,14,2.80
2019,03,27,08,15,2.80
2019,03,27,08,16,2.80
2019,03,27,08,17,2.80
2019,03,27,08,18,2.90
2019,03,27,08,19,3.00
2019,03,27,08,20,3.00
2019,03,27,08,21,3.10
2019,03,27,08,22,3.10
2019,03,27,08,23,3.20
2019,03,27,08,24,3.30
2019,03,27,08,25,3.40
2019,03,27,08,26,3.50
2019,03,27,08,27,3.60
2019,03,27,08,28,3.70
2019,03,27,08,29,3.80
2019,03,27,08,30,3.80
2019,03,27,08,31,3.80
2019,03,27,08,32,3.90
2019,03,27,08,33,3.90
2019,03,27,08,34,4.00
2019,03,27,08,35,4.00
2019,03,27,08,36,4.10
2019,03,27,08,37,4.10
2019,03,27,08,38,4.20
2019,03,27,08,39,4.20
2019,03,27,08,40,4.30
2019,03,27,08,41,4.30
2019,03,27,08,42,4.40
2019,03,27,08,43,4.50
2019,03,27,08,44,4.50
2019,03,27,08,45,4.60
2019,03,27,08,46,4.60
2019,03,27,08,47,4.70
2019,03,27,08,48,4.80
2019,03,27,08,49,4.80
2019,03,27,08,50,4.90
2019,03,27,08,51,4.90
2019,03,27,08,52,5.00
2019,03,27,08,53,5.10
2019,03,27,08,54,5.10
2019,03,27,08,55,5.10
2019,03,27,08,56,5.20
2019,03,27,08,57,5.20
2019,03,27,08,58,5.30
2019,03,27,08,59,5.40
2019,03,27,09,00,5.40
2019,03,27,09,01,5.50
2019,03,27,09,02,5.60
2019,03,27,09,03,5.60
2019,03,27,09,04,5.70
2019,03,27,09,05,5.80
2019,03,27,09,06,5.80
2019,03,27,09,07,5.80
2019,03,27,09,08,5.90
2019,03,27,09,09,6.00
2019,03,27,09,10,6.10
2019,03,27,09,11,6.10
2019,03,27,09,12,6.20
2019,03,27,09,13,6.30
2019,03,27,09,14,6.30
2019,03,27,09,15,6.30
2019,03,27,09,16,6.40
2019,03,27,09,17,6.40
2019,03,27,09,18,6.40
2019,03,27,09,19,6.40
2019,03,27,09,20,6.40
2019,03,27,09,21,6.40
2019,03,27,09,22,6.40
2019,03,27,09,23,6.40
2019,03,27,09,24,6.40
2019,03,27,09,25,6.40
2019,03,27,09,26,6.50
2019,03,27,09,27,6.50
2019,03,27,09,28,6.60
2019,03,27,09,29,6.60
2019,03,27,09,30,6.70
2019,03,27,09,31,6.70
2019,03,27,09,32,6.70
2019,03,27,09,33,6.80
2019,03,27,09,34,6.80
2019,03,27,09,35,6.80
2019,03,27,09,36,6.90
2019,03,27,09,37,6.90
2019,03,27,09,38,7.00
2019,03,27,09,39,7.00
2019,03,27,09,40,7.10
2019,03,27,09,41,7.10
2019,03,27,09,42,7.20
2019,03,27,09,43,7.20
2019,03,27,09,44,7.20
2019,03,27,09,45,7.30
2019,03,27,09,46,7.30
2019,03,27,09,47,7.40
2019,03,27,09,48,7.40
2019,03,27,09,49,7.40
2019,03,27,09,50,7.50
2019,03,27,09,51,7.50
2019,03,27,09,52,7.60
2019,03,27,09,53,7.60
2019,03,27,09,54,7.60
2019,03,27,09,55,7.70
2019,03,27,09,56,7.70
2019,03,27,09,57,7.80
2019,03,27,09,58,7.80
2019,03,27,09,59,7.80
2019,03,27,10,00,7.90
2019,03,27,10,01,7.90
2019,03,27,10,02,8.00
2019,03,27,10,03,8.00
2019,03,27,10,04,8.10
2019,03,27,10,05,8.10
2019,03,27,10,06,8.20
2019,03,27,10,07,8.20
2019,03,27,10,08,8.20
2019,03,27,10,09,8.20
2019,03,27,10,10,8.30
2019,03,27,10,11,8.30
2019,03,27,10,12,8.40
2019,03,27,10,13,8.50
2019,03,27,10,14,8.50
2019,03,27,10,15,8.60
2019,03,27,10,16,8.60
2019,03,27,10,17,8.70
2019,03,27,10,18,8.80
2019,03,27,10,19,8.80
2019,03,27,10,20,8.90
2019,03,27,10,21,8.90
2019,03,27,10,22,9.00
2019,03,27,10,23,9.00
2019,03,27,10,24,9.10
2019,03,27,10,25,9.20
2019,03,27,10,26,9.20
2019,03,27,10,27,9.30
2019,03,27,10,28,9.30
2019,03,27,10,29,9.30
2019,03,27,10,30,9.40
2019,03,27,10,31,9.40
2019,03,27,10,32,9.50
2019,03,27,10,33,9.60
2019,03,27,10,34,9.60
2019,03,27,10,35,9.70
2019,03,27,10,36,9.70
2019,03,27,10,37,9.80
2019,03,27,10,38,9.80
2019,03,27,10,39,9.80
2019,03,27,10,40,9.90
2019,03,27,10,41,9.90
2019,03,27,10,42,9.90
2019,03,27,10,43,9.90
2019,03,27,10,44,9.90
2019,03,27,10,45,10.00
2019,03,27,10,46,10.00
2019,03,27,10,47,10.00
2019,03,27,10,48,10.10
2019,03,27,10,49,10.20
2019,03,27,10,50,10.20
2019,03,27,10,51,10.20
2019,03,27,10,52,10.20
2019,03,27,10,53,10.30
2019,03,27,10,54,10.30
2019,03,27,10,55,10.40
2019,03,27,10,56,10.50
2019,03,27,10,57,10.60
2019,03,27,10,58,10.60
2019,03,27,10,59,10.60
2019,03,27,11,00,10.50
2019,03,27,11,01,10.50
2019,03,27,11,02,10.40
2019,03,27,11,03,10.40
2019,03,27,11,04,10.40
2019,03,27,11,05,10.50
2019,03,27,11,06,10.60
2019,03,27,11,07,10.60
2019,03,27,11,08,10.70
2019,03,27,11,09,10.80
2019,03,27,11,10,10.90
2019,03,27,11,11,10.90
2019,03,27,11,12,11.00
2019,03,27,11,13,11.10
2019,03,27,11,14,11.10
2019,03,27,11,15,11.10
2019,03,27,11,16,11.20
2019,03,27,11,17,11.20
2019,03,27,11,18,11.20
2019,03,27,11,19,11.20
2019,03,27,11,20,11.20
2019,03,27,11,21,11.20
2019,03,27,11,22,11.30
2019,03,27,11,23,11.30
2019,03,27,11,24,11.30
2019,03,27,11,25,11.30
2019,03,27,11,26,11.30
2019,03,27,11,27,11.30
2019,03,27,11,28,11.30
2019,03,27,11,29,11.40
2019,03,27,11,30,11.40
2019,03,27,11,31,11.40
2019,03,27,11,32,11.40
2019,03,27,11,33,11.40
2019,03,27,11,34,11.40
2019,03,27,11,35,11.40
2019,03,27,11,36,11.50
2019,03,27,11,37,11.60
2019,03,27,11,38,11.60
2019,03,27,11,39,11.70
2019,03,27,11,40,11.70
2019,03,27,11,41,11.80
2019,03,27,11,42,11.90
2019,03,27,11,43,11.90
2019,03,27,11,44,11.90
2019,03,27,11,45,11.90
2019,03,27,11,46,11.90
2019,03,27,11,47,12.00
2019,03,27,11,48,12.00
2019,03,27,11,49,12.00
2019,03,27,11,50,12.00
2019,03,27,11,51,12.00
2019,03,27,11,52,12.00
2019,03,27,11,53,11.90
2019,03,27,11,54,11.90
2019,03,27,11,55,11.90
2019,03,27,11,56,12.00
2019,03,27,11,57,12.00
2019,03,27,11,58,12.10
2019,03,27,11,59,12.10
2019,03,27,12,00,12.20
2019,03,27,12,01,12.20
2019,03,27,12,02,12.20
2019,03,27,12,03,12.30
2019,03,27,12,04,12.40
2019,03,27,12,05,12.40
2019,03,27,12,06,12.40
2019,03,27,12,07,12.40
2019,03,27,12,08,12.40
2019,03,27,12,09,12.40
2019,03,27,12,10,12.50
2019,03,27,12,11,12.60
2019,03,27,12,12,12.70
2019,03,27,12,13,12.80
2019,03,27,12,14,12.80
2019,03,27,12,15,12.90
2019,03,27,12,16,12.90
2019,03,27,12,17,12.90
2019,03,27,12,18,12.90
2019,03,27,12,19,12.80
2019,03,27,12,20,12.80
2019,03,27,12,21,12.80
2019,03,27,12,22,12.80
2019,03,27,12,23,12.80
2019,03,27,12,24,12.80
2019,03,27,12,25,12.80
2019,03,27,12,26,12.80
2019,03,27,12,27,12.80
2019,03,27,12,28,12.80
2019,03,27,12,29,12.80
2019,03,27,12,30,12.80
2019,03,27,12,31,12.80
2019,03,27,12,32,12.80
2019,03,27,12,33,12.80
2019,03,27,12,34,12.80
2019,03,27,12,35,12.80
2019,03,27,12,36,12.90
2019,03,27,12,37,12.80
2019,03,27,12,38,12.80
2019,03,27,12,39,12.70
2019,03,27,12,40,12.60
2019,03,27,12,41,12.60
2019,03,27,12,42,12.60
2019,03,27,12,43,12.60
2019,03,27,12,44,12.60
2019,03,27,12,45,12.60
2019,03,27,12,46,12.60
2019,03,27,12,47,12.60
2019,03,27,12,48,12.70
2019,03,27,12,49,12.70
2019,03,27,12,50,12.70
2019,03,27,12,51,12.80
2019,03,27,12,52,12.80
2019,03,27,12,53,12.90
2019,03,27,12,54,12.90
2019,03,27,12,55,12.90
2019,03,27,12,56,12.90
2019,03,27,12,57,13.00
2019,03,27,12,58,13.00
2019,03,27,12,59,13.00
2019,03,27,13,00,13.10
2019,03,27,13,01,13.10
2019,03,27,13,02,13.10
2019,03,27,13,03,13.10
2019,03,27,13,04,13.00
2019,03,27,13,05,13.00
2019,03,27,13,06,13.00
2019,03,27,13,07,13.10
2019,03,27,13,08,13.10
2019,03,27,13,09,13.10
2019,03,27,13,10,13.10
2019,03,27,13,11,13.00
2019,03,27,13,12,13.10
2019,03,27,13,13,13.10
2019,03,27,13,14,13.20
2019,03,27,13,15,13.20
2019,03,27,13,16,13.30
2019,03,27,13,17,13.30
2019,03,27,13,18,13.30
2019,03,27,13,19,13.30
2019,03,27,13,20,13.30
2019,03,27,13,21,13.40
2019,03,27,13,22,13.40
2019,03,27,13,23,13.40
2019,03,27,13,24,13.40
2019,03,27,13,25,13.40
2019,03,27,13,26,13.50
2019,03,27,13,27,13.50
2019,03,27,13,28,13.50
2019,03,27,13,29,13.50
2019,03,27,13,30,13.60
2019,03,27,13,31,13.60
2019,03,27,13,32,13.60
2019,03,27,13,33,13.60
2019,03,27,13,34,13.60
2019,03,27,13,35,13.60
2019,03,27,13,36,13.60
2019,03,27,13,37,13.60
2019,03,27,13,38,13.70
2019,03,27,13,39,13.70
2019,03,27,13,40,13.80
2019,03,27,13,41,13.80
2019,03,27,13,42,13.90
2019,03,27,13,43,14.00
2019,03,27,13,44,14.00
2019,03,27,13,45,14.10
2019,03,27,13,46,14.10
2019,03,27,13,47,14.10
2019,03,27,13,48,14.10
2019,03,27,13,49,14.10
2019,03,27,13,50,14.10
2019,03,27,13,51,14.10
2019,03,27,13,52,14.20
2019,03,27,13,53,14.20
2019,03,27,13,54,14.20
2019,03,27,13,55,14.30
2019,03,27,13,56,14.40
2019,03,27,13,57,14.50
2019,03,27,13,58,14.60
2019,03,27,13,59,14.70
2019,03,27,14,00,14.60
2019,03,27,14,01,14.60
2019,03,27,14,02,14.60
2019,03,27,14,03,14.60
2019,03,27,14,04,14.60
2019,03,27,14,05,14.60
2019,03,27,14,06,14.60
2019,03,27,14,07,14.70
2019,03,27,14,08,14.70
2019,03,27,14,09,14.80
2019,03,27,14,10,14.80
2019,03,27,14,11,14.80
2019,03,27,14,12,14.80
2019,03,27,14,13,14.80
2019,03,27,14,14,14.80
2019,03,27,14,15,14.90
2019,03,27,14,16,14.90
2019,03,27,14,17,14.90
2019,03,27,14,18,15.00
2019,03,27,14,19,15.00
2019,03,27,14,20,15.00
2019,03,27,14,21,15.00
2019,03,27,14,22,15.10
2019,03,27,14,23,15.20
2019,03,27,14,24,15.30
2019,03,27,14,25,15.40
2019,03,27,14,26,15.40
2019,03,27,14,27,15.30
2019,03,27,14,28,15.30
2019,03,27,14,29,15.40
2019,03,27,14,30,15.30
2019,03,27,14,31,15.30
2019,03,27,14,32,15.40
2019,03,27,14,33,15.40
2019,03,27,14,34,15.50
2019,03,27,14,35,15.50
2019,03,27,14,36,15.60
2019,03,27,14,37,15.60
2019,03,27,14,38,15.60
2019,03,27,14,39,15.60
2019,03,27,14,40,15.60
2019,03,27,14,41,15.60
2019,03,27,14,42,15.60
2019,03,27,14,43,15.70
2019,03,27,14,44,15.70
2019,03,27,14,45,15.80
2019,03,27,14,46,15.80
2019,03,27,14,47,15.80
2019,03,27,14,48,15.80
2019,03,27,14,49,15.80
2019,03,27,14,50,15.80
2019,03,27,14,51,15.90
2019,03,27,14,52,16.00
2019,03,27,14,53,16.10
2019,03,27,14,54,16.10
2019,03,27,14,55,16.10
2019,03,27,14,56,16.10
2019,03,27,14,57,16.10
2019,03,27,14,58,16.00
2019,03,27,14,59,16.00
2019,03,27,15,00,15.90
2019,03,27,15,01,16.00
2019,03,27,15,02,16.00
2019,03,27,15,03,16.10
2019,03,27,15,04,16.10
2019,03,27,15,05,16.10
2019,03,27,15,06,16.10
2019,03,27,15,07,16.10
2019,03,27,15,08,16.20
2019,03,27,15,09,16.20
2019,03,27,15,10,16.20
2019,03,27,15,11,16.30
2019,03,27,15,12,16.30
2019,03,27,15,13,16.30
2019,03,27,15,14,16.30
2019,03,27,15,15,16.30
2019,03,27,15,16,16.30
2019,03,27,15,17,16.40
2019,03,27,15,18,16.40
2019,03,27,15,19,16.40
2019,03,27,15,20,16.40
2019,03,27,15,21,16.40
2019,03,27,15,22,16.40
2019,03,27,15,23,16.50
2019,03,27,15,24,16.60
2019,03,27,15,25,16.60
2019,03,27,15,26,16.60
2019,03,27,15,27,16.50
2019,03,27,15,28,16.60
2019,03,27,15,29,16.60
2019,03,27,15,30,16.60
2019,03,27,15,31,16.50
2019,03,27,15,32,16.50
2019,03,27,15,33,16.50
2019,03,27,15,34,16.60
2019,03,27,15,35,16.60
2019,03,27,15,36,16.70
2019,03,27,15,37,16.70
2019,03,27,15,38,16.80
2019,03,27,15,39,16.80
2019,03,27,15,40,16.80
2019,03,27,15,41,16.80
2019,03,27,15,42,16.80
2019,03,27,15,43,16.80
2019,03,27,15,44,16.80
2019,03,27,15,45,16.80
2019,03,27,15,46,16.80
2019,03,27,15,47,16.80
2019,03,27,15,48,16.90
2019,03,27,15,49,17.00
2019,03,27,15,50,17.10
2019,03,27,15,51,17.10
2019,03,27,15,52,17.10
2019,03,27,15,53,17.10
2019,03,27,15,54,17.10
2019,03,27,15,55,17.10
2019,03,27,15,56,17.10
2019,03,27,15,57,17.10
2019,03,27,15,58,17.10
2019,03,27,15,59,17.10
2019,03,27,16,00,17.20
2019,03,27,16,01,17.10
2019,03,27,16,02,17.20
2019,03,27,16,03,17.20
2019,03,27,16,04,17.20
2019,03,27,16,05,17.20
2019,03,27,16,06,17.10
2019,03,27,16,07,17.10
2019,03,27,16,08,17.10
2019,03,27,16,09,17.10
2019,03,27,16,10,17.10
2019,03,27,16,11,17.10
2019,03,27,16,12,17.10
2019,03,27,16,13,17.10
2019,03,27,16,14,17.10
2019,03,27,16,15,17.00
2019,03,27,16,16,17.00
2019,03,27,16,17,16.90
2019,03,27,16,18,17.00
2019,03,27,16,19,17.00
2019,03,27,16,20,17.00
2019,03,27,16,21,17.00
2019,03,27,16,22,16.90
2019,03,27,16,23,17.00
2019,03,27,16,24,17.00
2019,03,27,16,25,17.10
2019,03,27,16,26,17.10
2019,03,27,16,27,17.10
2019,03,27,16,28,17.10
2019,03,27,16,29,17.10
2019,03,27,16,30,17.10
2019,03,27,16,31,17.10
2019,03,27,16,32,17.20
2019,03,27,16,33,17.20
2019,03,27,16,34,17.30
2019,03,27,16,35,17.30
2019,03,27,16,36,17.40
2019,03,27,16,37,17.40
2019,03,27,16,38,17.40
2019,03,27,16,39,17.30
2019,03,27,16,40,17.30
2019,03,27,16,41,17.30
2019,03,27,16,42,17.30
2019,03,27,16,43,17.20
2019,03,27,16,44,17.30
2019,03,27,16,45,17.30
2019,03,27,16,46,17.30
2019,03,27,16,47,17.30
2019,03,27,16,48,17.30
2019,03,27,16,49,17.30
2019,03,27,16,50,17.30
2019,03,27,16,51,17.20
2019,03,27,16,52,17.30
2019,03,27,16,53,17.30
2019,03,27,16,54,17.30
2019,03,27,16,55,17.40
2019,03,27,16,56,17.40
2019,03,27,16,57,17.40
2019,03,27,16,58,17.40
2019,03,27,16,59,17.40
2019,03,27,17,00,17.40
2019,03,27,17,01,17.40
2019,03,27,17,02,17.40
2019,03,27,17,03,17.30
2019,03,27,17,04,17.30
2019,03,27,17,05,17.40
2019,03,27,17,06,17.40
2019,03,27,17,07,17.40
2019,03,27,17,08,17.50
2019,03,27,17,09,17.50
2019,03,27,17,10,17.60
2019,03,27,17,11,17.60
2019,03,27,17,12,17.60
2019,03,27,17,13,17.70
2019,03,27,17,14,17.70
2019,03,27,17,15,17.70
2019,03,27,17,16,17.70
2019,03,27,17,17,17.70
2019,03,27,17,18,17.60
2019,03,27,17,19,17.60
2019,03,27,17,20,17.60
2019,03,27,17,21,17.50
2019,03,27,17,22,17.50
2019,03,27,17,23,17.40
2019,03,27,17,24,17.40
2019,03,27,17,25,17.40
2019,03,27,17,26,17.40
2019,03,27,17,27,17.40
2019,03,27,17,28,17.50
2019,03,27,17,29,17.50
2019,03,27,17,30,17.60
2019,03,27,17,31,17.70
2019,03,27,17,32,17.70
2019,03,27,17,33,17.60
2019,03,27,17,34,17.60
2019,03,27,17,35,17.70
2019,03,27,17,36,17.70
2019,03,27,17,37,17.70
2019,03,27,17,38,17.70
2019,03,27,17,39,17.70
2019,03,27,17,40,17.70
2019,03,27,17,41,17.70
2019,03,27,17,42,17.80
2019,03,27,17,43,17.80
2019,03,27,17,44,17.80
2019,03,27,17,45,17.80
2019,03,27,17,46,17.80
2019,03,27,17,47,17.90